Hourly Data Report for July 19, 2003

SHERBROOKE A
QUEBEC

45°26'00.000" N
71°41'00.000" W
241.40 m
7028124
71610
YSC

Download Data

Hourly Data (July 2003)
Hourly Data Report for July 19, 2003
TIME
LST
Temp Definition
°C
Dew Point Definition
°C
Rel Hum Definition
%
Precip. Amount Definition
mm

Wind Dir Definition
10's deg

Wind Spd Definition
km/h
Visibility Definition
km
Stn Press Definition
kPa
Hmdx Definition


Wind Chill Definition


Weather Definition


00:00 13.1 11.0 87   17 6 15.0 98.51      
01:00 11.9 10.8 93     0 15.0 98.47      
02:00 12.7 10.8 88   24 6 15.0 98.48      
03:00 12.2 10.7 91     0 15.0 98.48      
04:00 12.4 10.4 88   23 6 15.0 98.53      
05:00 11.2 9.9 92   22 4 15.0 98.53      
06:00 15.0 11.5 80   21 7 15.0 98.56      
07:00 16.8 11.0 69   24 7 24.1 98.58     Mainly Clear
08:00 18.5 10.5 60   26 17 24.1 98.57     Mostly Cloudy
09:00 18.6 10.8 60   26 11 24.1 98.58     Mostly Cloudy
10:00 18.9 11.6 63   27 11 24.1 98.61     Mostly Cloudy
11:00 18.5 10.4 59   26 17 24.1 98.61     Mostly Cloudy
12:00 19.4 10.5 56   26 11 24.1 98.56     Mostly Cloudy
13:00 19.8 9.7 52   25 11 24.1 98.55     Mostly Cloudy
14:00 19.8 10.5 55   22 13 24.1 98.55     Mostly Cloudy
15:00 20.6 11.5 56   23 9 24.1 98.53     Mostly Cloudy
16:00 20.9 11.0 53   23 13 24.1 98.50     Mostly Cloudy
17:00 20.6 11.7 57   23 7 15.0 98.49      
18:00 19.4 12.9 66   24 6 15.0 98.51     Rain
19:00 16.6 13.3 81   29 17 15.0 98.59     Rain
20:00 15.5 13.8 90   23 4 15.0 98.65     Rain
21:00 15.2 13.9 92   18 6 15.0 98.66      
22:00 14.9 13.8 93     0 15.0 98.65     Rain
23:00 14.4 13.5 94     0 15.0 98.65      

Notes on Data Quality.

Legend

  • E = Estimated
  • M = Missing
  • NA = Not Available*
  • [empty] = Indicates an unobserved value
Date modified: